Погода в Хомутово

Россия / Орловская область     52°51′15″N   37°26′32″E
темп.,
°C
ветер,
м/с
пор.,
м/с
влажн.,
%
обл.,
%
осадки,
мм/ч
давл.,
гПа
погр.,
м
17 июня, чт
чт1700:00+15ссв49920 0.0 1017162
03:00+15св512890 0.0 1018298
06:00+15св512830 0.0 1019338
09:00+19св610640 0.0 1021560
12:00+21св67560 0.0 1021993
15:00+22св67580 0.0 10211329
18:00+21св68710 0.0 10221049
21:00+16св410864 0.0 1023203
18 июня, пт
пт1800:00+14св410910 0.0 1024163
03:00+13всв49930 0.0 1025171
06:00+14всв411840 0.0 1026259
09:00+19в58680 0.0 1026618
12:00+21в67580 0.0 10261161
15:00+22в67570 0.0 10261452
18:00+21в46690 0.0 10261129
21:00+16в35850 0.0 102665
19 июня, сб
сб1900:00+14в36844 0.0 102796
03:00+13в35925 0.0 102777
06:00+14в37885 0.0 1028192
09:00+19вюв57710 0.0 1027610
12:00+21вюв56600 0.0 10271087
15:00+22вюв55570 0.0 10251127
18:00+22вюв35680 0.0 1025827
21:00+17в33820 0.0 102542
20 июня, вс
вс2000:00+15вюв34850 0.0 102565
03:00+14вюв33860 0.0 102535
06:00+15в35870 0.0 1025137
09:00+20вюв45690 0.0 1025494
12:00+23вюв45575 0.0 1024858
15:00+24вюв4555100 0.0 1023939
18:00+24вюв35685 0.0 1022726
21:00+19в45845 0.0 102271
21 июня, пн
пн2100:00+17вюв34896 0.0 102267
03:00+16вюв349210 0.0 102261
06:00+17в378995 0.0 1022168
09:00+22в577177 0.0 1021428
12:00+26вюв566031 0.0 1021807
15:00+27вюв565760 0.0 10201002
18:00+26вюв466956 0.0 1020489
21:00+21в46865 0.0 102089